This is the latest recevied weather packets stored in our database for station/object BV1EV-2. If no packets are shown the sender has not sent any weather packets the latest 1 day(s).
| Time | Temp. | Humidity | Pressure | Rain* | Wind** | Luminosity | Snow |
|---|---|---|---|---|---|---|---|
| 1778014667 | 24.44° C | 42% | 1011.2 hPa | - | - | - | - |
| 1778013468 | 25° C | 35% | 1010.8 hPa | - | - | - | - |
| 1778012268 | 25° C | 34% | 1010.8 hPa | - | - | - | - |
| 1778011068 | 25° C | 34% | 1010.6 hPa | - | - | - | - |
| 1778009868 | 25.56° C | 34% | 1010.6 hPa | - | - | - | - |
| 1778008667 | 25.56° C | 34% | 1010.6 hPa | - | - | - | - |
| 1778007467 | 26.11° C | 34% | 1010.6 hPa | - | - | - | - |
| 1778006267 | 26.11° C | 35% | 1010.8 hPa | - | - | - | - |
| 1778005067 | 26.11° C | 37% | 1010.6 hPa | - | - | - | - |
| 1778003867 | 26.67° C | 39% | 1011.1 hPa | - | - | - | - |
| 1778002668 | 27.78° C | 47% | 1010.9 hPa | - | - | - | - |
| 1778001468 | 27.78° C | 41% | 1011.1 hPa | - | - | - | - |
| 1778000268 | 28.33° C | 47% | 1011.5 hPa | - | - | - | - |
| 1777999067 | 28.33° C | 47% | 1011.5 hPa | - | - | - | - |
| 1777997867 | 28.33° C | 47% | 1011.6 hPa | - | - | - | - |
| 1777996667 | 28.33° C | 46% | 1012.1 hPa | - | - | - | - |
| 1777995467 | 28.33° C | 42% | 1012.4 hPa | - | - | - | - |
| 1777994268 | 27.22° C | 61% | 1012.5 hPa | - | - | - | - |
| 1777993068 | 26.67° C | 56% | 1012.8 hPa | - | - | - | - |
| 1777991867 | 27.78° C | 50% | 1012.5 hPa | - | - | - | - |
| 1777990668 | 28.89° C | 43% | 1012.4 hPa | - | - | - | - |
| 1777989468 | 28.89° C | 42% | 1012.9 hPa | - | - | - | - |
| 1777988267 | 29.44° C | 41% | 1012.9 hPa | - | - | - | - |
| 1777987067 | 30° C | 45% | 1013 hPa | - | - | - | - |
| 1777985867 | 30° C | 44% | 1013 hPa | - | - | - | - |
* Rain since midnight (hover to see other rain measurements)
** Current wind speed in m/s (hover to see current wind gust speed)